Terminal Aerodrome Forecast
Issued by NWS Huntsville, AL

Home | Current Version | Previous Version | Text Only | Print | Product List | Glossary On
Versions: 1 2 3 4 5 6 7 8 9 10 11 12 13 14 15 16 17 18 19 20 21 22 23 24 25 26 27 28 29 30 31 32 33 34 35 36 37 38
000
FTUS44 KHUN 051730
TAFMSL
TAF
KMSL 051730Z 0518/0618 32013G23KT P6SM FEW060
     FM060100 34005KT P6SM SKC
     FM061500 35010KT P6SM SKC=

USA.gov is the U.S. government's official web portal to all federal, state and local government web resources and services.